This demonstration page uses our WeatherBlox Daily Observations layout. Learn more.

Left ArrowRight Arrow

36.17497, -115.13722

Hourly Observations for May 30, 2017

Temp ( °F °C ) Dew Point ( °F °C ) Humidity (%) Winds ( mph kmh ) Pressure ( in mb ) Visibility ( mi km ) Precip ( " mm )
12:53 am 00:53 Clear 78 25.6 25 -3.9 14 14 N 6 9 29.77 1008 10 16 0.00 0.00
1:53 am 01:53 Clear 79 26.1 24 -4.4 13 13 Calm 29.77 1008 10 16 0.00 0.00
2:53 am 02:53 Clear 74 23.3 29 -1.7 19 19 NW 7 11 29.78 1008 10 16 0.00 0.00
3:53 am 03:53 Clear 73 22.8 30 -1.1 20 20 Calm 29.79 1009 10 16 0.00 0.00
4:53 am 04:53 Clear 73 22.8 29 -1.7 19 19 WNW 6 9 29.80 1009 10 16 0.00 0.00
5:53 am 05:53 Sunny 74 23.3 27 -2.8 17 17 WNW 6 9 29.81 1010 10 16 0.00 0.00
6:53 am 06:53 Sunny 76 24.4 28 -2.2 17 17 NW 3 6 29.83 1010 10 16 0.00 0.00
7:53 am 07:53 Sunny 81 27.2 27 -2.8 14 14 Calm 29.84 1011 10 16 0.00 0.00
8:53 am 08:53 Sunny 86 30 22 -5.6 9 9 ENE 5 7 29.84 1011 10 16 0.00 0.00
9:53 am 09:53 Sunny 88 31.1 18 -7.8 7 7 ESE 3 6 29.85 1011 10 16 0.00 0.00
10:53 am 10:53 Sunny 91 32.8 19 -7.2 7 7 SE 6 9 29.85 1011 10 16 0.00 0.00
11:53 am 11:53 Sunny 93 33.9 20 -6.7 7 7 SE 12 19 29.84 1011 10 16 0.00 0.00
12:53 pm 12:53 Sunny 96 35.6 16 -8.9 5 5 undefined N/A 29.82 1010 10 16 0.00 0.00
1:53 pm 13:53 Sunny 97 36.1 15 -9.4 5 5 VRB 5 7 29.79 1009 10 16 0.00 0.00
2:53 pm 14:53 Sunny 97 36.1 15 -9.4 5 5 SSE 8 13 29.78 1009 10 16 0.00 0.00
3:53 pm 15:53 Sunny 97 36.1 16 -8.9 5 5 E 3 6 29.75 1007 10 16 0.00 0.00
4:53 pm 16:53 Sunny 98 36.7 16 -8.9 5 5 SSW 12 19 29.72 1007 10 16 0.00 0.00
5:53 pm 17:53 Sunny 98 36.7 18 -7.8 5 5 SW 12 19 29.71 1006 10 16 0.00 0.00
6:53 pm 18:53 Sunny 95 35 17 -8.3 6 6 SW 7 11 29.71 1006 10 16 0.00 0.00
7:53 pm 19:53 Clear 93 33.9 22 -5.6 7 7 W 9 15 29.72 1007 10 16 0.00 0.00
8:53 pm 20:53 Clear 91 32.8 23 -5 8 8 W 5 7 29.72 1007 10 16 0.00 0.00
9:53 pm 21:53 Clear 87 30.6 25 -3.9 10 10 SSW 6 9 29.74 1007 10 16 0.00 0.00
10:53 pm 22:53 Clear 85 29.4 27 -2.8 12 12 WSW 5 7 29.75 1007 10 16 0.00 0.00
11:53 pm 23:53 Clear 80 26.7 28 -2.2 15 15 NE 5 7 29.75 1008 10 16 0.00 0.00

Powered by AerisWeather